Mountain Home, ID

3:30 PM MDT on March 29, 2017 (GMT -0600)
Mountain Home Air Force Base

Weather History for KMUO - October, 2013

Change the Weather History Date:

Monday, October 28, 2013

  Actual Average Record
Temperature  
Mean Temperature 41 °F 46 °F  
Max Temperature 46 °F 60 °F 82 °F (1937)
Min Temperature 35 °F 32 °F 14 °F (1919)
Degree Days  
Heating Degree Days 24 18  
Month to date heating degree days 454 361  
Moisture  
Dew Point 42 °F    
Average Humidity 95    
Maximum Humidity 100    
Minimum Humidity 58    
Precipitation  
Precipitation 0.20 in 0.03 in 0.66 in (1991)
Month to date precipitation 0.29 0.68  
Sea Level Pressure  
Sea Level Pressure 29.54 in    
Wind  
Wind Speed 11 mph (NW)    
Max Wind Speed 18 mph    
Max Gust Speed 18 mph    
Visibility 9 miles    
Events Rain    
T = Trace of Precipitation, MM = Missing Value Source: NWS Daily Summary

Daily Weather History Graph

Daily Weather History Graph

Search for Another Location

Airport or City:

Trip Planner

Search our weather history database for the weather conditions in past years. The results will help you decide how hot, cold, wet, or windy it might be!

Date:

Astronomy

Oct. 28, 2013 Rise Set
Actual Time 8:13 AM MDT 6:40 PM MDT
Civil Twilight 7:44 AM MDT 7:09 PM MDT
Nautical Twilight 7:10 AM MDT 7:43 PM MDT
Astronomical Twilight 6:37 AM MDT 8:15 PM MDT
Moon 2:01 AM MDT (10/28) 3:32 PM MDT (10/28)
Length of Visible Light 11h 25m
Length of Day
10h 27m
Waning Crescent, 33% of the Moon is Illuminated
Oct 28
Waning Crescent
Nov 3
New
Nov 9
First Quarter
Nov 17
Full
Nov 25
Last Quarter

Hourly Weather History & Observations

Time (MDT) Temp. Windchill Dew Point Humidity Pressure Visibility Wind Dir Wind Speed Gust Speed Precip Events Conditions
12:58 AM 48.7 °F - 34.7 °F 58% 29.54 in 10.0 mi NNW 9.2 mph - N/A   Mostly Cloudy
1:08 AM 48.2 °F - 35.6 °F 62% 29.55 in 10.0 mi North 10.4 mph - N/A   Mostly Cloudy
1:18 AM 50.0 °F - 35.6 °F 58% 29.55 in 10.0 mi NW 9.2 mph - N/A   Mostly Cloudy
1:23 AM 50.0 °F - 35.6 °F 58% 29.55 in 10.0 mi NW 6.9 mph - N/A   Overcast
1:58 AM 48.4 °F - 36.1 °F 63% 29.51 in 10.0 mi NNW 17.3 mph - 0.00 in Rain Light Rain
2:28 AM 46.4 °F 41.1 °F 37.4 °F 71% 29.54 in 10.0 mi NNW 11.5 mph - N/A Rain Light Rain
2:58 AM 45.3 °F 40.6 °F 40.1 °F 82% 29.52 in 10.0 mi NW 9.2 mph - 0.00 in Rain Light Rain
3:13 AM 44.6 °F 39.7 °F 41.0 °F 87% 29.53 in 10.0 mi NW 9.2 mph - N/A Rain Light Rain
3:33 AM 44.6 °F 43.1 °F 41.0 °F 87% 29.51 in 9.0 mi NW 3.5 mph - N/A Rain Light Rain
3:38 AM 44.6 °F 41.4 °F 41.0 °F 87% 29.52 in 9.0 mi West 5.8 mph - N/A Rain Light Rain
3:43 AM 44.6 °F 40.7 °F 41.0 °F 87% 29.52 in 10.0 mi WNW 6.9 mph - N/A Rain Light Rain
3:58 AM 45.0 °F 40.6 °F 41.9 °F 89% 29.49 in 10.0 mi WNW 8.1 mph - 0.01 in   Light Drizzle
4:13 AM 44.6 °F 39.2 °F 42.8 °F 93% 29.52 in 10.0 mi WNW 10.4 mph - N/A   Overcast
4:28 AM 44.6 °F 38.8 °F 42.8 °F 93% 29.51 in 10.0 mi West 11.5 mph - N/A   Overcast
4:33 AM 44.6 °F 39.7 °F 42.8 °F 93% 29.51 in 10.0 mi West 9.2 mph - N/A   Overcast
4:48 AM 44.6 °F 39.7 °F 44.6 °F 100% 29.50 in 10.0 mi West 9.2 mph - N/A   Overcast
4:58 AM 44.1 °F 38.6 °F 43.9 °F 99% 29.47 in 10.0 mi West 10.4 mph - 0.00 in   Mostly Cloudy
5:58 AM 43.5 °F 37.9 °F 43.3 °F 99% 29.45 in 10.0 mi NNW 10.4 mph - N/A   Scattered Clouds
6:38 AM 42.8 °F 36.2 °F 42.8 °F 100% 29.49 in 9.0 mi NNW 12.7 mph - N/A   Mostly Cloudy
6:43 AM 42.8 °F 36.2 °F 42.8 °F 100% 29.48 in 8.0 mi North 12.7 mph - N/A   Mostly Cloudy
6:58 AM 43.3 °F 36.1 °F 43.2 °F 99% 29.47 in 6.0 mi NNW 15.0 mph - N/A   Overcast
7:18 AM 42.8 °F 35.1 °F 42.8 °F 100% 29.48 in 10.0 mi NNW 16.1 mph - N/A   Overcast
7:58 AM 43.7 °F 36.6 °F 43.7 °F 100% 29.47 in 5.0 mi NW 15.0 mph - N/A   Overcast
8:43 AM 44.6 °F 38.8 °F 44.6 °F 100% 29.49 in 6.0 mi NW 11.5 mph - N/A   Overcast
8:58 AM 44.6 °F 37.8 °F 44.4 °F 99% 29.48 in 7.0 mi NW 15.0 mph - N/A   Overcast
9:28 AM 44.6 °F 37.8 °F 44.6 °F 100% 29.50 in 7.0 mi NW 15.0 mph - N/A   Overcast
9:48 AM 44.6 °F 38.1 °F 44.6 °F 100% 29.49 in 7.0 mi NW 13.8 mph - N/A   Overcast
9:58 AM 44.8 °F 38.3 °F 44.6 °F 99% 29.50 in 7.0 mi NW 13.8 mph - N/A   Overcast
10:13 AM 44.6 °F 38.4 °F 44.6 °F 100% 29.49 in 7.0 mi NW 12.7 mph 18.4 mph N/A   Overcast
10:28 AM 44.6 °F 37.2 °F 44.6 °F 100% 29.50 in 7.0 mi NW 17.3 mph - N/A   Overcast
10:58 AM 45.9 °F 39.1 °F 45.3 °F 98% 29.50 in 10.0 mi NNW 16.1 mph - N/A   Overcast
11:08 AM 46.4 °F 39.8 °F 44.6 °F 93% 29.49 in 8.0 mi NW 16.1 mph - N/A   Light Drizzle
11:33 AM 44.6 °F 37.4 °F 44.6 °F 100% 29.49 in 8.0 mi NW 16.1 mph - N/A Rain Light Rain
11:58 AM 44.6 °F 38.1 °F 44.2 °F 99% 29.50 in 5.0 mi NW 13.8 mph - 0.01 in Rain Light Rain
12:28 PM 44.6 °F 37.4 °F 44.6 °F 100% 29.49 in 8.0 mi NNW 16.1 mph - N/A Rain Light Rain
12:53 PM 44.6 °F 37.4 °F 44.6 °F 100% 29.49 in 8.0 mi NNW 16.1 mph - N/A Rain Light Rain
12:58 PM 45.0 °F 37.4 °F 44.8 °F 99% 29.49 in 8.0 mi NW 18.4 mph - 0.01 in Rain Light Rain
1:13 PM 44.6 °F 37.4 °F 44.6 °F 100% 29.49 in 9.0 mi NNW 16.1 mph - N/A   Light Drizzle
1:18 PM 44.6 °F 37.4 °F 44.6 °F 100% 29.49 in 10.0 mi NNW 16.1 mph - N/A   Overcast
1:28 PM 44.6 °F 38.1 °F 44.6 °F 100% 29.49 in 9.0 mi NNW 13.8 mph - N/A   Overcast
1:58 PM 44.8 °F 38.3 °F 44.4 °F 99% 29.49 in 9.0 mi NNW 13.8 mph - 0.00 in   Overcast
2:06 PM 44.6 °F 38.1 °F 44.6 °F 100% 29.49 in 9.0 mi NNW 13.8 mph - N/A   Overcast
2:28 PM 44.6 °F 37.4 °F 44.6 °F 100% 29.49 in 9.0 mi NNW 16.1 mph - N/A   Overcast
2:38 PM 44.6 °F 37.8 °F 44.6 °F 100% 29.49 in 10.0 mi NNW 15.0 mph - N/A   Overcast
2:58 PM 44.8 °F 37.7 °F 44.1 °F 97% 29.49 in 10.0 mi NW 16.1 mph - 0.00 in   Overcast
3:33 PM 44.6 °F 37.8 °F 44.6 °F 100% 29.50 in 10.0 mi NNW 15.0 mph - N/A   Light Drizzle
3:52 PM 44.6 °F 38.1 °F 44.6 °F 100% 29.50 in 8.0 mi NW 13.8 mph - N/A Rain Light Rain
3:58 PM 44.4 °F 37.9 °F 44.2 °F 99% 29.51 in 7.0 mi NNW 13.8 mph 18.4 mph 0.01 in Rain Light Rain
4:18 PM 44.6 °F 37.8 °F 42.8 °F 93% 29.50 in 9.0 mi NNW 15.0 mph - N/A Rain Light Rain
4:53 PM 42.8 °F 35.8 °F 42.8 °F 100% 29.52 in 9.0 mi NNW 13.8 mph - N/A Rain Light Rain
4:58 PM 43.7 °F 37.3 °F 43.3 °F 99% 29.53 in 7.0 mi NW 12.7 mph - 0.03 in Rain Rain
5:12 PM 42.8 °F 36.6 °F 42.8 °F 100% 29.54 in 2.5 mi NNW 11.5 mph - N/A Rain Heavy Rain
5:38 PM 42.8 °F 37.0 °F 42.8 °F 100% 29.55 in 5.0 mi SSW 10.4 mph - N/A Rain Light Rain
5:58 PM 43.0 °F 37.7 °F 42.8 °F 99% 29.58 in 5.0 mi SW 9.2 mph - 0.11 in Rain Light Rain
6:17 PM 42.8 °F 37.5 °F 42.8 °F 100% 29.56 in 10.0 mi WSW 9.2 mph - N/A Rain Light Rain
6:38 PM 42.8 °F 38.0 °F 42.8 °F 100% 29.57 in 10.0 mi West 8.1 mph - N/A   Light Drizzle
6:58 PM 41.9 °F 37.5 °F 41.9 °F 100% 29.61 in 10.0 mi WNW 6.9 mph - 0.01 in   Light Drizzle
7:43 PM 42.8 °F 40.1 °F 42.8 °F 100% 29.62 in 10.0 mi WSW 4.6 mph - N/A Rain Light Rain
7:58 PM 41.9 °F 40.0 °F 41.9 °F 100% 29.64 in 10.0 mi SW 3.5 mph - 0.00 in   Light Drizzle
8:58 PM 41.7 °F 39.8 °F 41.7 °F 100% 29.69 in 10.0 mi SSW 3.5 mph - 0.00 in   Overcast
9:58 PM 41.7 °F 38.8 °F 41.5 °F 99% 29.70 in 10.0 mi SSE 4.6 mph - 0.01 in   Overcast
10:53 PM 41.0 °F 37.1 °F 41.0 °F 100% 29.72 in 10.0 mi SSE 5.8 mph - N/A   Overcast
10:58 PM 41.7 °F 38.0 °F 41.7 °F 100% 29.73 in 10.0 mi SSE 5.8 mph - N/A   Overcast
11:03 PM 41.0 °F 37.1 °F 41.0 °F 100% 29.72 in 10.0 mi SSE 5.8 mph - N/A   Overcast
11:13 PM 41.0 °F 37.1 °F 41.0 °F 100% 29.73 in 10.0 mi South 5.8 mph - N/A   Overcast
11:18 PM 41.0 °F 37.1 °F 41.0 °F 100% 29.72 in 10.0 mi South 5.8 mph - N/A   Overcast
11:33 PM 41.0 °F 37.1 °F 41.0 °F 100% 29.72 in 10.0 mi South 5.8 mph - N/A   Mostly Cloudy
11:38 PM 41.0 °F 37.1 °F 41.0 °F 100% 29.72 in 10.0 mi South 5.8 mph - N/A   Mostly Cloudy
11:58 PM 39.7 °F 35.6 °F 39.7 °F 100% 29.77 in 10.0 mi SSE 5.8 mph - N/A   Mostly Cloudy